Location: Peterborough
(44.3091°N, 78.3197°W)
Time: 07:00:40
(UTC-04:00)

Vanguard 2 - Pass Details

Date: 31 March 2023
Orbit: 552 x 2926 km, 32.9° (Epoch: 04 June)

Event Time Altitude Azimuth Distance (km) Brightness Sun altitude
Rises 01:50:04 0° 179° (S) 5,947 - -41.1°
Reaches altitude 10° 01:56:54 10° 158° (SSE) 5,355 - -40.8°
Maximum altitude 02:03:55 14° 132° (SE) 5,273 - -40.5°
Exits shadow 02:04:14 14° 131° (SE) 5,283 11.5 -40.5°
Drops below altitude 10° 02:11:19 10° 107° (ESE) 5,751 11.9 -40.1°
Sets 02:19:08 0° 87° (E) 6,703 12.6 -39.7°
